• In Uzbekistan
  • List of Countries
  • For 7 days
  • Water Temperature
  • Satellite Maps
  • Weather Map
  • Weather Widgets
  • user-avatar
    Login

    Hourly Weather Zaafrana

    Today, 19 July, Thursday

    Time Temperature Precipitation Wind Pressure Humidity
    00:00 +33°C° 0 mm 3 mps 740 mmHg 35%
    01:00 +31°C° 0 mm 3 mps 740 mmHg 39%
    02:00 +30°C° 0 mm 3 mps 740 mmHg 43%
    03:00 +30°C° 0 mm 3 mps 740 mmHg 46%
    04:00 +29°C° 0 mm 2 mps 740 mmHg 50%
    05:00 +28°C° 0 mm 2 mps 740 mmHg 53%
    06:00 +30°C° 0 mm 2 mps 740 mmHg 49%
    07:00 +31°C° 0 mm 2 mps 740 mmHg 44%
    08:00 +32°C° 0 mm 2 mps 741 mmHg 40%
    09:00 +35°C° 0 mm 3 mps 740 mmHg 33%
    10:00 +37°C° 0 mm 3 mps 740 mmHg 26%
    11:00 +38°C° 0 mm 3 mps 740 mmHg 20%
    12:00 +40°C° 0 mm 4 mps 740 mmHg 18%
    13:00 +41°C° 0 mm 4 mps 740 mmHg 16%
    14:00 +42°C° 0 mm 4 mps 739 mmHg 14%
    15:00 +42°C° 0 mm 4 mps 739 mmHg 15%
    16:00 +41°C° 0 mm 4 mps 739 mmHg 15%
    17:00 +41°C° 0 mm 4 mps 739 mmHg 15%
    18:00 +40°C° 0 mm 4 mps 739 mmHg 18%
    19:00 +38°C° 0 mm 3 mps 739 mmHg 20%
    20:00 +36°C° 0 mm 3 mps 739 mmHg 23%
    21:00 +35°C° 0 mm 3 mps 740 mmHg 29%
    22:00 +34°C° 0 mm 4 mps 740 mmHg 36%
    23:00 +33°C° 0 mm 4 mps 741 mmHg 43%

    Tomorrow, 20 July, Friday

    Time Temperature Precipitation Wind Pressure Humidity
    00:00 +32°C° 0 mm 4 mps 741 mmHg 48%
    01:00 +30°C° 0 mm 4 mps 740 mmHg 52%
    02:00 +30°C° 0 mm 3 mps 740 mmHg 56%
    03:00 +29°C° 0 mm 3 mps 740 mmHg 59%
    04:00 +29°C° 0 mm 3 mps 740 mmHg 61%
    05:00 +28°C° 0 mm 3 mps 740 mmHg 63%
    06:00 +29°C° 0 mm 3 mps 741 mmHg 58%
    07:00 +30°C° 0 mm 3 mps 741 mmHg 54%
    08:00 +31°C° 0 mm 3 mps 741 mmHg 49%
    09:00 +34°C° 0 mm 3 mps 741 mmHg 43%
    10:00 +35°C° 0 mm 3 mps 741 mmHg 36%
    11:00 +36°C° 0 mm 3 mps 741 mmHg 30%
    12:00 +37°C° 0 mm 3 mps 741 mmHg 26%
    13:00 +38°C° 0 mm 4 mps 740 mmHg 23%
    14:00 +40°C° 0 mm 4 mps 740 mmHg 19%
    15:00 +40°C° 0 mm 4 mps 740 mmHg 19%
    16:00 +40°C° 0 mm 5 mps 739 mmHg 18%
    17:00 +40°C° 0 mm 5 mps 739 mmHg 18%
    18:00 +39°C° 0 mm 5 mps 739 mmHg 22%
    19:00 +36°C° 0 mm 6 mps 740 mmHg 26%
    20:00 +35°C° 0 mm 6 mps 740 mmHg 30%
    21:00 +34°C° 0 mm 6 mps 741 mmHg 35%
    22:00 +33°C° 0 mm 5 mps 741 mmHg 39%
    23:00 +32°C° 0 mm 5 mps 741 mmHg 44%

    Day after tomorrow, 21 July, Saturday

    Time Temperature Precipitation Wind Pressure Humidity
    00:00 +30°C° 0 mm 4 mps 741 mmHg 46%
    01:00 +30°C° 0 mm 3 mps 741 mmHg 48%
    02:00 +29°C° 0 mm 3 mps 741 mmHg 49%
    03:00 +29°C° 0 mm 2 mps 741 mmHg 51%
    04:00 +28°C° 0 mm 2 mps 741 mmHg 52%
    05:00 +28°C° 0 mm 2 mps 741 mmHg 53%
    06:00 +29°C° 0 mm 2 mps 741 mmHg 47%
    07:00 +30°C° 0 mm 2 mps 741 mmHg 41%
    08:00 +31°C° 0 mm 3 mps 741 mmHg 34%
    09:00 +34°C° 0 mm 3 mps 741 mmHg 30%
    10:00 +35°C° 0 mm 3 mps 741 mmHg 25%
    11:00 +36°C° 0 mm 3 mps 741 mmHg 21%
    12:00 +37°C° 0 mm 4 mps 741 mmHg 20%
    13:00 +38°C° 0 mm 4 mps 740 mmHg 19%
    14:00 +40°C° 0 mm 4 mps 740 mmHg 18%
    15:00 +40°C° 0 mm 4 mps 740 mmHg 19%
    16:00 +40°C° 0 mm 4 mps 739 mmHg 20%
    17:00 +39°C° 0 mm 5 mps 739 mmHg 20%
    18:00 +38°C° 0 mm 4 mps 740 mmHg 23%
    19:00 +37°C° 0 mm 4 mps 740 mmHg 25%
    20:00 +36°C° 0 mm 4 mps 741 mmHg 28%
    21:00 +35°C° 0 mm 4 mps 741 mmHg 35%
    22:00 +33°C° 0 mm 5 mps 741 mmHg 43%
    23:00 +32°C° 0 mm 5 mps 741 mmHg 50%

    22 July, Sunday

    Time Temperature Precipitation Wind Pressure Humidity
    00:00 +32°C° 0 mm 4 mps 741 mmHg 54%
    01:00 +30°C° 0 mm 3 mps 741 mmHg 57%
    02:00 +29°C° 0 mm 3 mps 741 mmHg 60%
    03:00 +29°C° 0 mm 3 mps 741 mmHg 63%
    04:00 +28°C° 0 mm 2 mps 741 mmHg 67%
    05:00 +28°C° 0 mm 2 mps 740 mmHg 70%
    06:00 +28°C° 0 mm 2 mps 741 mmHg 65%
    07:00 +29°C° 0 mm 3 mps 741 mmHg 59%
    08:00 +30°C° 0 mm 3 mps 741 mmHg 54%
    09:00 +33°C° 0 mm 3 mps 741 mmHg 47%
    10:00 +34°C° 0 mm 3 mps 741 mmHg 40%
    11:00 +35°C° 0 mm 3 mps 740 mmHg 34%
    12:00 +36°C° 0 mm 4 mps 740 mmHg 31%
    13:00 +37°C° 0 mm 4 mps 739 mmHg 29%
    14:00 +39°C° 0 mm 5 mps 739 mmHg 26%
    15:00 +39°C° 0 mm 5 mps 739 mmHg 25%
    16:00 +40°C° 0 mm 5 mps 739 mmHg 25%
    17:00 +40°C° 0 mm 5 mps 738 mmHg 25%
    18:00 +38°C° 0 mm 4 mps 739 mmHg 26%
    19:00 +37°C° 0 mm 3 mps 739 mmHg 28%
    20:00 +36°C° 0 mm 2 mps 739 mmHg 29%
    21:00 +35°C° 0 mm 3 mps 740 mmHg 33%
    22:00 +34°C° 0 mm 3 mps 740 mmHg 37%
    23:00 +34°C° 0 mm 4 mps 740 mmHg 40%

    23 July, Monday

    Time Temperature Precipitation Wind Pressure Humidity
    00:00 +33°C° 0 mm 4 mps 740 mmHg 45%
    01:00 +31°C° 0 mm 3 mps 740 mmHg 50%
    02:00 +31°C° 0 mm 3 mps 739 mmHg 55%
    03:00 +30°C° 0 mm 3 mps 739 mmHg 58%
    04:00 +30°C° 0 mm 2 mps 740 mmHg 61%
    05:00 +29°C° 0 mm 2 mps 740 mmHg 64%
    06:00 +30°C° 0 mm 2 mps 740 mmHg 60%
    07:00 +31°C° 0 mm 2 mps 740 mmHg 56%
    08:00 +32°C° 0 mm 2 mps 740 mmHg 52%
    09:00 +34°C° 0 mm 2 mps 740 mmHg 45%
    10:00 +36°C° 0 mm 3 mps 740 mmHg 38%
    11:00 +37°C° 0 mm 3 mps 740 mmHg 30%
    12:00 +38°C° 0 mm 3 mps 739 mmHg 27%
    13:00 +39°C° 0 mm 3 mps 739 mmHg 24%
    14:00 +41°C° 0 mm 4 mps 738 mmHg 21%
    15:00 +41°C° 0 mm 4 mps 738 mmHg 20%
    16:00 +41°C° 0 mm 4 mps 738 mmHg 20%
    17:00 +41°C° 0 mm 4 mps 738 mmHg 20%
    18:00 +39°C° 0 mm 3 mps 738 mmHg 21%
    19:00 +38°C° 0 mm 2 mps 738 mmHg 23%
    20:00 +36°C° 0 mm 1 mps 739 mmHg 25%
    21:00 +36°C° 0 mm 2 mps 739 mmHg 27%
    22:00 +35°C° 0 mm 3 mps 739 mmHg 29%
    23:00 +35°C° 0 mm 3 mps 739 mmHg 32%

    24 July, Tuesday

    Time Temperature Precipitation Wind Pressure Humidity
    00:00 +34°C° 0 mm 3 mps 739 mmHg 37%
    01:00 +33°C° 0 mm 3 mps 739 mmHg 42%
    02:00 +33°C° 0 mm 3 mps 739 mmHg 46%
    03:00 +31°C° 0 mm 2 mps 739 mmHg 48%
    04:00 +30°C° 0 mm 2 mps 739 mmHg 49%
    05:00 +30°C° 0 mm 2 mps 740 mmHg 51%
    06:00 +31°C° 0 mm 2 mps 740 mmHg 45%
    07:00 +34°C° 0 mm 2 mps 740 mmHg 39%
    08:00 +35°C° 0 mm 2 mps 740 mmHg 33%
    09:00 +37°C° 0 mm 2 mps 740 mmHg 28%
    10:00 +38°C° 0 mm 2 mps 740 mmHg 23%
    11:00 +40°C° 0 mm 2 mps 740 mmHg 17%
    12:00 +41°C° 0 mm 2 mps 739 mmHg 15%
    13:00 +43°C° 0 mm 3 mps 739 mmHg 13%
    14:00 +44°C° 0 mm 3 mps 739 mmHg 11%
    15:00 +44°C° 0 mm 3 mps 739 mmHg 11%
    16:00 +43°C° 0 mm 4 mps 738 mmHg 11%
    17:00 +43°C° 0 mm 4 mps 738 mmHg 11%
    18:00 +42°C° 0 mm 4 mps 739 mmHg 13%
    19:00 +40°C° 0 mm 3 mps 739 mmHg 15%
    20:00 +38°C° 0 mm 3 mps 739 mmHg 17%
    21:00 +38°C° 0 mm 3 mps 740 mmHg 20%
    22:00 +37°C° 0 mm 3 mps 740 mmHg 23%
    23:00 +36°C° 0 mm 3 mps 740 mmHg 26%
    Show more